User: anonymous   Login
Location: Unspecified
(0.0000°N, 0.0000°E)
Time: 11:13:30
(UTC+00:00)
Language:

Telecom 2D - Orbit

View from above orbital plane
View from above orbital plane
View from above satellite
View from above satellite

Ground track
Ground track

The orbit data is extracted from the following two-line orbital elements,

1 24209U 96044B   18019.90639733 -.00000211 +00000-0 +00000-0 0  9994
2 24209 009.0654 044.1834 0020607 286.8929 252.5140 00.98449016078326
Epoch (UTC): 19 January 2018 21:45:12
Eccentricity: 0.0020607
inclination: 9.0654°
perigee height: 36217 km
apogee height: 36393 km
right ascension of ascending node: 44.1834°
argument of perigee: 286.8929°
revolutions per day: 0.98449016
mean anomaly at epoch: 252.5140°
orbit number at epoch: 7832

The dashed part of the orbit path shows where the satellite is in the earth's shadow,  

DLR